Home > Time Zones > World Clock > Weather > U.S.A. > Napa > Past weeks

Flag for U.S.A. Weather past 2 weeks in Napa, California, U.S.A.

Now
65 °F

Partly sunny.


Feels Like: 65 °F
Forecast: 54 / 80 °F
Wind: 8 mph from Southwest

Location: Napa County Airport

Current Time: Aug 23, 2014 at 11:59:07 AM

Latest Report: Aug 23, 2014 at 10:54 AM


Visibility: 10 mi

Pressure: 29.93 "Hg

Humidity: 73%

Dew point: 56 °F

Location of NapaLocation

Historic Weather in Napa — Graph

°F

Napa temperature yesterday

Maximum temperature yesterday: 75 °F (at 4:54 PM)
Minimum temperature yesterday: 58 °F (at 4:54 AM)
Average temperature yesterday: 64 °F

Past Weeks' High & Low Weather Summary

 TemperatureHumidityPressure
High80 °F (Aug 16, 2:54 PM)100% (Aug 11, 2:54 AM)30.03 "Hg (Aug 11, 2:54 AM)
Low47 °F (Aug 16, 5:56 AM)47% (Aug 16, 2:54 PM)29.76 "Hg (Aug 18, 5:54 PM)
Average63 °F80%29.90 "Hg
* Reported Aug 8 10:54 AM — Aug 23 10:54 AM, Napa, Weather by CustomWeather, © 2014

Note: Actual official high and low records may vary slightly from our data, if they occured in-between our weather recording intervals... More about our weather records

Advertising

Napa weather history for previous 24 hours

 ConditionsComfort  
Time TempWeatherWind HumidityBarometerVisibility
10:54 AM
Aug 23
65 °FPartly sunny.8 mph73%29.93 "Hg10 mi
9:54 AM63 °FOvercast.5 mph78%29.93 "Hg10 mi
8:54 AM61 °FOvercast.5 mph83%29.92 "Hg10 mi
7:54 AM60 °FOvercast.5 mph83%29.91 "Hg10 mi
6:54 AM59 °FOvercast.5 mph87%29.89 "Hg10 mi
5:54 AM59 °FOvercast.6 mph87%29.88 "Hg10 mi
4:54 AM59 °FOvercast.5 mph87%29.88 "Hg10 mi
3:54 AM59 °FOvercast.7 mph87%29.88 "Hg10 mi
2:54 AM60 °FOvercast.6 mph86%29.88 "Hg10 mi
1:54 AM60 °FOvercast.6 mph86%29.88 "Hg10 mi
12:54 AM60 °FOvercast.7 mph86%29.88 "Hg10 mi
11:54 PM
Aug 22
60 °FOvercast.10 mph90%29.88 "Hg10 mi
10:54 PM60 °FOvercast.7 mph86%29.88 "Hg10 mi
9:54 PM60 °FOvercast.7 mph90%29.88 "Hg10 mi
8:54 PM59 °FClear.9 mph90%29.86 "Hg10 mi
7:54 PM63 °FSunny.14 mph81%29.84 "Hg10 mi
6:54 PM70 °FSunny.15 mph71%29.83 "Hg10 mi
5:54 PM73 °FSunny.15 mph66%29.84 "Hg10 mi
4:54 PM75 °FSunny.17 mph62%29.83 "Hg10 mi
3:54 PM73 °FSunny.20 mph62%29.84 "Hg10 mi
2:54 PM74 °FSunny.18 mph60%29.84 "Hg10 mi
1:54 PM74 °FSunny.20 mph60%29.86 "Hg10 mi
12:54 PM73 °FSunny.13 mph59%29.88 "Hg10 mi
11:54 AM71 °FSunny.10 mph61%29.89 "Hg10 mi
Weather by CustomWeather, © 2014

See weather overviewHow to use our weather pages